Flight Track Log - Related Links

Times and Time Zones

All times are in EDT time to prevent confusion due to time zone crossing. See the SWA2435 flight status page for this flight to view local times or setup timezone preferences in your user account.

Time Position Orientation Groundspeed Altitude Reporting Facility
EDT Latitude Longitude Course Direction KTS MPH feet Rate Location/Type
Sat 09:30:43 AM 30.0864 -97.6053 47° Northeast 217 250 5,500  Level Houston Center
Sat 09:31:45 AM 30.0664 -97.5333 108° East 240 276 8,000 2,565 Climbing Houston Center
Sat 09:32:47 AM 30.1453 -97.4922 24° Northeast 299 344 10,800 2,634 Climbing Houston Center
Sat 09:33:48 AM 30.2333 -97.4503 22° Northeast 335 386 13,400 2,585 Climbing Houston Center
Sat 09:34:00 AM 30.5210 -97.3405 47° Northeast  Level FlightAware Approximate
Sat 09:34:50 AM 30.3281 -97.4075 21° North 361 415 16,100  Level Houston Center
Sat 09:35:00 AM 30.5830 -97.2671 41° Northeast  Level FlightAware Approximate
Sat 09:35:52 AM 30.4292 -97.3628 21° North 383 441 19,000  Level Houston Center
Sat 09:36:00 AM 30.6408 -97.1907 47° Northeast  Level FlightAware Approximate
Sat 09:36:53 AM 30.5328 -97.3153 22° Northeast 399 459 21,700  Level Houston Center
Sat 09:37:55 AM 30.6444 -97.2131 38° Northeast 437 503 22,000 145 Climbing Houston Center
Sat 09:38:57 AM 30.7292 -97.1119 46° Northeast 439 505 22,000  Level Houston Center
Sat 09:39:58 AM 30.8122 -97.0125 46° Northeast 439 505 22,000  Level Houston Center
Sat 09:41:00 AM 30.8928 -96.9142 46° Northeast 429 494 22,000  Level Houston Center
Sat 09:42:02 AM 30.9736 -96.8158 46° Northeast 425 489 22,000  Level Houston Center
Sat 09:43:04 AM 31.0539 -96.7192 46° Northeast 421 484 22,000  Level Houston Center
Sat 09:44:05 AM 31.1664 -96.6325 33° Northeast 416 479 22,000  Level Houston Center
Sat 09:45:07 AM 31.2744 -96.5911 18° North 410 472 22,000  Level Houston Center
Sat 09:46:09 AM 31.3817 -96.5461 20° North 410 472 22,000  Level Houston Center
Sat 09:47:10 AM 31.4897 -96.5033 19° North 410 472 22,000  Level Houston Center
Sat 09:48:12 AM 31.5972 -96.4583 20° North 410 472 22,000  Level Houston Center
Sat 09:49:14 AM 31.7078 -96.4142 19° North 415 478 22,000 -135 Level Houston Center
Sat 09:50:25 AM 31.8483 -96.3550 20° North 418 481 21,700 -1,038 Descending Fort Worth Center
Sat 09:51:27 AM 31.9539 -96.3128 19° North 406 467 19,700 -2,032 Descending Fort Worth Center
Sat 09:52:29 AM 32.0556 -96.2903 11° North 390 449 17,500 -2,341 Descending Fort Worth Center
Sat 09:53:30 AM 32.1525 -96.3117 349° North 360 414 14,900 -2,829 Descending Fort Worth Center
Sat 09:54:32 AM 32.2708 -96.3339 351° North 349 402 11,700 -2,323 Descending Fort Worth Center
Sat 09:55:34 AM 32.3594 -96.3519 350° North 325 374 10,100 -1,306 Descending Fort Worth Center
Sat 09:56:36 AM 32.4364 -96.3686 350° North 283 326 9,000 -537 Descending Fort Worth Center
Sat 09:57:37 AM 32.5128 -96.4147 333° Northwest 288 331 9,000  Level Fort Worth Center
Sat 09:58:39 AM 32.5853 -96.4581 333° Northwest 290 334 9,000 -726 Level Fort Worth Center
Sat 09:59:41 AM 32.6578 -96.5019 333° Northwest 292 336 7,500 -1,382 Descending Fort Worth Center
Sat 10:01:37 AM 32.7833 -96.6167 322° Northwest 270 311 4,900 -1,135 Descending Dallas / Fort Worth TRACON
Sat 10:02:46 AM 32.8358 -96.6875 311° West 277 319 4,000 -412 Descending Fort Worth Center
Sat 10:03:48 AM 32.8833 -96.7511 312° West 268 308 4,000 -488 Level Fort Worth Center
Sat 10:04:49 AM 32.9325 -96.8136 313° West 263 303 3,000 -829 Descending Fort Worth Center
Sat 10:05:51 AM 32.9417 -96.8839 279° West 194 223 2,300 -581 Descending Fort Worth Center
Sat 10:06:53 AM 32.9086 -96.9142 218° Southwest 151 174 1,800 -581 Descending Fort Worth Center
Sat 10:07:55 AM 32.8803 -96.8850 139° Southeast 127 146 1,100 -634 Descending Fort Worth Center
Sat 10:08:56 AM 32.8553 -96.8544 134° Southeast 125 144 500 -590 Descending Fort Worth Center

Login

Don't have an account? Register now (free) for customized features, flight alerts, and more!